Regional Weather Roundup
Issued by NWS

Home | Current Version | Previous Version | Graphics & Text | Print | Product List | Glossary On
Versions: 1 2 3 4 5 6 7 8 9 10 11 12 13 14 15 16 17 18 19 20 21 22 23 24 25 26 27
000
ASUS45 KBOI 280810
RWRID

IDAHO REGIONAL WEATHER ROUNDUP
NATIONAL WEATHER SERVICE BOISE ID
200 AM MDT SAT MAY 28 2016

NOTE: "FAIR" INDICATES FEW OR NO CLOUDS BELOW 12000 FEET
WITH NO SIGNIFICANT WEATHER AND/OR OBSTRUCTIONS TO VISIBILITY

IDZ012-014-280900-
SOUTHWEST IDAHO


CITY           SKY/WX    TMP DP  RH WIND       PRES   REMARKS
BOISE          CLEAR     51  31  46 W7        30.01R
CALDWELL       CLEAR     49  33  54 SW7       30.03R
MOUNTAIN HOME  CLEAR     49  34  56 W8        30.00R
$$

IDZ016-017-280900-
SOUTHCENTRAL IDAHO


CITY           SKY/WX    TMP DP  RH WIND       PRES   REMARKS
BURLEY         CLEAR     45  31  58 S12       29.98R
JEROME         CLEAR     48  28  46 SW8       29.99R
TWIN FALLS     CLEAR     47  26  44 SW13      30.00R
$$

IDZ019>023-280900-
SOUTHEAST IDAHO


CITY           SKY/WX    TMP DP  RH WIND       PRES   REMARKS
IDAHO FALLS    CLEAR     44  35  70 SW8       29.99R
POCATELLO      CLEAR     48  28  46 S10       29.99R
REXBURG        CLEAR     45  38  76 SE3       29.97S
$$

IDZ006-010-011-018-031-032-280900-
CENTRAL IDAHO MOUNTAINS


CITY           SKY/WX    TMP DP  RH WIND       PRES   REMARKS
MCCALL         PTCLDY    40  30  67 N5        30.02S
HAILEY         CLEAR     41  32  70 NW8       29.99R
STANLEY          N/A     30  25  81 S3        30.03S
SALMON         CLOUDY    48  36  61 CALM      30.00R
CHALLIS        PTCLDY    43  34  70 NW3       30.00R
$$

IDZ002-004-006-007-026-280900-
NORTHERN IDAHO


CITY           SKY/WX    TMP DP  RH WIND       PRES   REMARKS
LEWISTON       PTCLDY    49  39  68 SE7       30.04R
LOWELL           N/A     48  44  86 CALM      30.07R
COEUR D`ALENE  MOCLDY    48  37  66 SE9       29.98S
MULLAN PASS    MOCLDY    33  26  75 NW3       30.02S
$$




USA.gov is the U.S. government's official web portal to all federal, state and local government web resources and services.